Greenville Downtown, SC

4:29 AM EST on November 18, 2017 (GMT -0500)
Greenville Downtown

Weather History for KGMU - January, 2013

Change the Weather History Date:

Monday, January 14, 2013

  Actual Average Record
Temperature  
Mean Temperature 63 °F -  
Max Temperature 66 °F 49 °F 69 °F (2007)
Min Temperature 60 °F 32 °F 19 °F (2011)
Degree Days  
Heating Degree Days 2    
Growing Degree Days 13 (Base 50)    
Moisture  
Dew Point 61 °F    
Average Humidity 93    
Maximum Humidity 100    
Minimum Humidity 81    
Precipitation  
Precipitation 0.34 in - - ()
Sea Level Pressure  
Sea Level Pressure 30.09 in    
Wind  
Wind Speed 3 mph (SSW)    
Max Wind Speed 10 mph    
Max Gust Speed -    
Visibility 6 miles    
Events Rain    
Averages and records for this station are not official NWS values.
T = Trace of Precipitation, MM = Missing Value Source: NWS Daily Summary

Daily Weather History Graph

Daily Weather History Graph

Search for Another Location

Airport or City:

Trip Planner

Search our weather history database for the weather conditions in past years. The results will help you decide how hot, cold, wet, or windy it might be!

Date:

Astronomy

Jan. 14, 2013 Rise Set
Actual Time 7:36 AM EST 5:40 PM EST
Civil Twilight 7:09 AM EST 6:08 PM EST
Nautical Twilight 6:38 AM EST 6:39 PM EST
Astronomical Twilight 6:07 AM EST 7:09 PM EST
Moon 9:19 AM EST (1/14) 9:14 PM EST (1/14)
Length of Visible Light 10h 58m
Length of Day
10h 03m
Waxing Crescent, 11% of the Moon is Illuminated
Jan 14
Waxing Crescent
Jan 18
First Quarter
Jan 26
Full
Feb 3
Last Quarter
Feb 10
New

Hourly Weather History & Observations

Time (EST) Temp. Dew Point Humidity Pressure Visibility Wind Dir Wind Speed Gust Speed Precip Events Conditions
12:53 AM 62.1 °F 59.0 °F 90% 30.08 in 8.0 mi South 4.6 mph - 0.00 in Rain Light Rain
1:53 AM 62.1 °F 59.0 °F 90% 30.07 in 9.0 mi Calm Calm - 0.02 in Rain Light Rain
2:39 AM 60.8 °F 59.0 °F 94% 30.10 in 2.5 mi Calm Calm - 0.05 in Rain Rain
2:53 AM 61.0 °F 59.0 °F 93% 30.09 in 5.0 mi Calm Calm - 0.05 in Rain Light Rain
3:50 AM 60.8 °F 60.8 °F 100% 30.09 in 4.0 mi Calm Calm - 0.06 in Rain Light Rain
3:53 AM 61.0 °F 60.1 °F 97% 30.07 in 4.0 mi Calm Calm - 0.06 in Rain Light Rain
4:21 AM 60.8 °F 59.0 °F 94% 30.08 in 2.5 mi Calm Calm - 0.02 in Rain Light Rain
4:53 AM 61.0 °F 59.0 °F 93% 30.06 in 4.0 mi Calm Calm - 0.03 in Rain Light Rain
5:08 AM 60.8 °F 60.8 °F 100% 30.07 in 3.0 mi SSE 3.5 mph - 0.00 in Rain Light Rain
5:53 AM 61.0 °F 60.1 °F 97% 30.05 in 2.0 mi South 3.5 mph - 0.07 in Rain Heavy Rain
6:02 AM 60.8 °F 60.8 °F 100% 30.07 in 2.5 mi Calm Calm - 0.01 in Rain Rain
6:10 AM 60.8 °F 60.8 °F 100% 30.08 in 2.5 mi Calm Calm - 0.02 in Rain Rain
6:17 AM 60.8 °F 60.8 °F 100% 30.08 in 4.0 mi SSW 3.5 mph - 0.03 in Rain Light Rain
6:53 AM 61.0 °F 60.1 °F 97% 30.07 in 5.0 mi South 3.5 mph - 0.03 in Rain Light Rain
7:53 AM 62.1 °F 60.1 °F 93% 30.10 in 7.0 mi SSW 5.8 mph - 0.02 in Rain Light Rain
8:02 AM 62.6 °F 60.8 °F 94% 30.11 in 7.0 mi SSW 3.5 mph - 0.00 in Rain Light Rain
8:53 AM 63.0 °F 61.0 °F 93% 30.11 in 4.0 mi SSW 8.1 mph - 0.01 in Rain Light Rain
9:53 AM 63.0 °F 62.1 °F 97% 30.13 in 6.0 mi SSW 8.1 mph - 0.00 in Rain Light Rain
10:53 AM 64.0 °F 62.1 °F 93% 30.12 in 8.0 mi SSW 6.9 mph - 0.03 in Rain Light Rain
11:53 AM 64.9 °F 63.0 °F 93% 30.09 in 6.0 mi SW 8.1 mph - 0.01 in Rain Light Rain
12:53 PM 64.9 °F 63.0 °F 93% 30.06 in 8.0 mi SW 8.1 mph - 0.00 in   Overcast
1:46 PM 66.2 °F 62.6 °F 88% 30.07 in 8.0 mi SW 9.2 mph - N/A   Overcast
3:00 PM 66.2 °F 62.6 °F 88% 30.08 in 8.0 mi SSW 5.8 mph - N/A   Overcast
3:24 PM 66.2 °F 62.6 °F 88% 30.09 in 9.0 mi SW 10.4 mph - N/A   Overcast
3:45 PM 66.2 °F 62.6 °F 88% 30.09 in 7.0 mi SW 5.8 mph - 0.00 in Rain Light Rain
3:53 PM 66.9 °F 63.0 °F 87% 30.08 in 6.0 mi SW 5.8 mph - 0.00 in Rain Light Rain
5:53 PM 66.0 °F 63.0 °F 90% 30.10 in 10.0 mi SSW 3.5 mph - N/A   Overcast
6:53 PM 64.9 °F 63.0 °F 93% 30.10 in 9.0 mi SSW 3.5 mph - N/A   Scattered Clouds
7:53 PM 64.9 °F 62.1 °F 90% 30.09 in 9.0 mi SSE 4.6 mph - N/A   Mostly Cloudy
8:53 PM 64.9 °F 61.0 °F 87% 30.09 in 10.0 mi South 4.6 mph - N/A   Overcast
9:53 PM 66.0 °F 60.1 °F 81% 30.09 in 10.0 mi SSW 6.9 mph - N/A   Overcast
10:37 PM 64.4 °F 60.8 °F 88% 30.12 in 10.0 mi WSW 8.1 mph - 0.00 in Rain Light Rain
10:53 PM 64.0 °F 61.0 °F 90% 30.11 in 6.0 mi West 5.8 mph - 0.00 in Rain Light Rain
11:25 PM 62.6 °F 62.6 °F 100% 30.12 in 7.0 mi WSW 4.6 mph - 0.01 in Rain Light Rain
11:46 PM 62.6 °F 60.8 °F 94% 30.12 in 9.0 mi SW 3.5 mph - 0.01 in   Overcast
11:53 PM 63.0 °F 62.1 °F 97% 30.10 in 9.0 mi Calm Calm - 0.01 in   Overcast